SCP
0 0 0 0 0 0 0 0 0 0 0 0 0 0 0 0 0 0 0 0 0 0 0 0 0 0 0 0 0 0 0 0 0 0 0 0 0 0 0 0 0 0 0
0 0 0 0 0 0 0 0 0 0 0 0 0 0 0 0 0 0 0 0 0 0 0 0 0 0 0 0 0 0 0 0 0 0 0 0 0 0 0 0 0 0 0
0 0 0 0 0 0 0 0 0 0 0 0 0 0 0 0 0 0 0 0 0 0 0 0 0 0 0 0 0 0 0 0 0 0 0 0 0 0 0 0 0 0 0
0 0 0 0 0 0 0 0 0 0 0 0 0 0 0 0 0 0 0 0 0 0 0 0 0 0 0 0 0 0 0 0 0 0 0 0 0 0 0 0 0 0 0
0 0 0 0 0 0 0 0 0 0 0 0 0 0 0 0 0 0 0 0 0 0 0 0 0 0 0 0 0 0 0 0 0 0 0 0 0 0 0 0 0 0 0
0 0 0 0 0 0 0 0 0 0 0 0 0 0 0 0 0 0 0 0 0 0 0 0 0 0 0 0 0 0 0 0 0 0 0 0 0 0 0 0 0 0 0
0 0 0 0 0 0 0 0 0 0 0 0 0 0 0 0 0 0 0 0 0 0 0 0 0 0 0 0 0 0 0 0 0 0 0 0 0 0 0 0 0 0 0
0 0 0 0 0 0 0 0 0 0 0 0 0 0 0 0 0 0 0 0 0 0 0 0 0 0 0 0 0 0 0 0 0 0 0 0 0 0 0 0 0 0 0
0 0 0 0 0 0 0 0 0 0 0 0 0 0 0 0 0 0 0 0 0 0 0 0 0 0 0 0 0 0 0 0 0 0 0 0 0 0 0 0 0 0 0
0 0 0 0 0 0 0 0 0 0 0 0 0 0 0 0 0 0 0 0 0 0 0 0 0 0 0 0 0 0 0 0 0 0 0 0 0 0 0 0 -0 0 0
0 0 0 0 0 0 0 0 0 0 0 0 0 0 0 0 0 -0 0 0 0 0 0 0 0 0 0 0 0 0 0 0 0 0 0 0 0 0 0 0 0 -0 -0
0 0 0 0 0 0 0 0 0 0 0 0 0 0 0 0 0 0 0 0 0 0 0 0 0 0 0 0 0 0 0 0 0 0 0 0 0 0 0 0 0 0 0
0 0 0 0 0 0 0 0 0 0 0 0 0 0 0 0 0 -0 0 0 0 0 0 0 0 0 0 0 0 0 0 0 0 0 0 0 -0 -0 -0 -0 0 0 0
0 0 0 0 0 0 0 0 0 0 0 0 0 0 0 0 0 0 0 0 0 0 0 0 0 0 0 0 0 0 0 0 0 0 0 0 0 0 0 0 0 0 0
0 0 0 0 0 0 0 0 0 0 0 0 0 0 0 0 0 0 0 0 0 0 0 0 0 0 0 0 0 0 0 0 0 0 0 0 0 0 0 0 0 0 0
0 0 0 0 0 0 0 0 0 0 0 0 0 0 0 0 0 0 0 0 0 0 0 0 0 0 0 0 0 0 0 0 0 0 0 0 0 0 0 0 0 0 0
0 0 0 0 0 0 0 0 0 0 0 0 0 0 0 0 0 0 0 0 0 0 0 0 0 0 0 0 0 0 0 0 0 0 0 0 0 0 0 0 0 0 0
0 0 0 0 0 0 0 0 0 0 0 0 0 0 0 0 0 0 0 0 0 0 0 0 0 0 0 0 0 0 0 0 0 0 0 0 0 0 0 0 0 0 0
0 0 0 0 0 0 0 0 0 0 0 0 0 0 0 0 0 0 0 0 0 0 0 0 0 0 0 0 0 0 0 0 0 0 0 0 0 0 0 0 0 0 0
0 0 0 0 0 0 0 0 0 0 0 0 0 0 0 0 0 0 0 0 0 0 0 0 0 0 0 0 0 0 0 0 0 0 0 0 0 0 0 0 0 0 0
0 0 0 0 0 0 0 0 0 0 0 0 0 0 0 0 0 0 0 0 0 0 0 0 0 0 0 0 0 0 0 0 0 0 0 0 0 0 0 0 0 0 0
0 0 0 0 0 0 0 0 0 0 0 0 0 0 0 0 0 0 0 0 0 0 0 0 0 0 0 0 0 0 0 0 0 0 0 0 0 0 0 0 0 0 0
0 0 0 0 0 0 0 0 0 0 0 0 0 0 0 0 0 0 0 0 0 0 0 0 0 0 0 0 0 0 0 0 0 0 0 0 0 0 0 0 0 0 0
0 0 0 0 0 0 0 0 0 0 0 0 0 0 0 0 0 0 0 0 0 0 0 0 0 0 0 0 0 0 0 0 0 0 0 0 0 0 0 0 0 0 0
0 0 0 0 0 0 0 0 0 0 0 0 0 0 0 0 0 0 0 0 0 0 0 0 0 0 0 0 0 0 0 0 0 0 0 0 0 0 0 0 0 0 0
0 0 0 0 0 0 0 0 0 0 0 0 0 0 0 0 0 0 0 0 0 0 0 0 0 0 0 0 0 0 0 0 0 0 0 0 0 0 0 0 0 0 0
Wind_Speed_500mb
49 47 45 42 36 32 28 24 18 11 5 5 11 17 23 28 33 36 39 42 46 50 53 60 63 67 70 71 72 71 71 68 75 125 107 109 106 97 89 82 80 75 75
49 47 44 41 36 30 23 18 11 4 6 13 20 25 29 32 38 44 49 52 57 61 65 68 71 73 74 75 76 78 80 79 74 95 116 110 101 90 86 86 83 79 77
48 44 42 37 30 22 16 10 5 7 14 20 25 28 33 38 43 47 53 57 61 64 69 73 77 79 82 80 79 82 82 83 80 78 105 100 99 93 93 87 86 85 77
46 41 37 32 24 16 8 3 6 13 19 23 27 30 34 39 45 51 58 63 67 70 73 76 79 81 83 85 84 83 81 80 80 78 85 91 88 89 80 80 89 84 82
44 38 32 25 17 10 2 8 14 18 20 23 26 31 37 43 51 58 63 68 73 78 79 81 83 84 82 81 82 79 74 76 74 79 83 80 87 85 84 89 83 82 76
42 35 27 20 11 4 6 12 14 16 19 23 30 36 41 47 54 59 68 76 79 82 86 87 89 89 87 84 81 76 68 70 75 76 83 82 93 80 82 81 77 72 58
40 33 24 16 7 2 9 11 13 16 21 28 35 42 47 54 61 67 71 75 79 82 85 88 91 91 88 86 87 81 79 68 61 68 72 74 79 75 73 76 62 46 44
38 29 20 12 4 6 9 12 15 21 28 34 41 50 56 59 63 67 70 75 79 81 83 86 88 89 85 85 86 90 83 74 59 59 59 65 67 68 59 50 37 29 9
37 28 18 8 5 6 9 13 20 26 32 41 48 51 56 58 63 67 72 76 80 82 82 83 83 83 83 72 76 79 74 71 64 55 44 44 47 43 33 19 15 9 23
37 27 16 8 7 8 11 15 23 32 39 43 46 51 54 57 60 66 70 74 80 84 84 80 77 73 69 66 61 59 69 63 48 44 38 30 26 21 14 11 8 9 20
34 23 14 10 10 11 13 20 28 35 39 44 47 50 55 60 65 69 73 76 77 81 81 76 70 68 58 55 46 48 43 42 33 29 27 17 14 16 17 18 15 16 5
30 21 15 14 14 13 17 26 34 36 40 45 52 55 61 67 72 74 75 74 71 68 69 67 64 65 56 41 36 35 31 23 21 24 15 8 12 18 21 23 24 21 19
27 22 19 17 16 19 24 30 31 35 41 47 55 62 67 72 76 77 78 76 65 58 61 60 55 56 47 39 32 35 24 20 19 15 3 6 10 14 19 17 17 15 12
25 23 22 21 22 25 29 31 33 36 42 50 58 66 72 78 82 83 82 80 74 68 68 59 53 55 45 36 33 31 22 18 12 9 8 5 6 7 8 10 10 10 6
33 28 27 27 26 28 29 34 37 40 47 54 59 66 74 82 82 81 77 76 70 69 66 58 54 54 45 35 34 27 21 18 15 12 9 7 6 7 8 7 7 6 2
33 31 29 28 28 29 32 35 38 42 46 51 57 63 68 73 80 80 77 70 64 59 56 57 54 56 48 35 35 29 25 24 20 17 13 10 13 13 10 9 8 7 6
33 33 31 30 30 33 37 41 44 43 49 52 56 60 64 73 74 70 68 65 61 47 46 51 50 54 47 39 39 33 33 30 27 23 17 16 16 14 11 11 10 9 7
35 33 32 32 33 36 41 45 50 56 60 58 56 59 63 65 64 59 56 57 50 39 36 41 45 50 45 42 43 39 34 34 30 27 21 17 15 14 16 13 12 11 9
37 35 33 33 36 39 43 47 52 55 58 62 64 60 61 63 60 47 38 39 43 41 42 40 33 38 40 43 45 45 39 36 32 25 21 19 18 19 16 15 13 11 9
37 35 35 36 37 38 44 48 51 54 57 58 60 62 65 68 66 59 43 36 41 49 50 46 37 42 47 45 47 45 39 35 29 24 22 21 22 20 18 16 13 11 10
36 36 37 38 38 41 45 47 49 52 54 56 57 57 58 59 61 58 55 52 56 61 56 47 39 36 39 49 46 43 39 32 25 25 23 23 22 20 20 17 15 15 13
37 38 39 39 40 42 43 45 47 49 50 53 56 55 54 56 57 59 60 59 54 50 49 46 38 32 34 39 38 37 31 25 26 25 25 24 22 20 20 17 18 17 16
40 41 42 42 42 43 42 42 42 44 45 46 50 53 53 54 55 57 57 55 52 47 45 39 35 33 32 34 34 30 24 24 23 25 25 23 21 21 20 18 19 18 17
45 45 42 41 40 41 40 38 37 38 40 43 45 48 49 50 51 51 50 49 46 41 37 33 31 29 29 30 31 28 26 23 21 24 24 22 22 22 22 21 21 20 19
45 42 40 39 38 37 35 34 35 36 38 41 42 44 45 45 45 43 43 41 39 34 30 26 24 24 25 27 28 24 25 27 28 28 23 24 24 24 23 22 23 21 20
41 39 37 36 34 34 34 33 33 36 37 38 39 40 43 44 42 42 40 37 34 30 26 23 20 20 23 24 20 23 27 28 30 21 20 26 26 25 25 25 25 23 23
Wind_Direction_500mb
145 147 146 143 141 139 141 136 133 120 89 4 337 331 326 324 323 323 324 325 325 326 325 323 323 321 319 318 315 311 307 302 290 300 301 305 305 305 306 301 303 303 298
148 147 146 145 145 146 142 133 118 89 353 337 332 329 329 329 328 327 328 327 327 327 326 323 322 319 317 316 313 310 307 305 298 296 303 305 305 307 305 303 305 300 299
151 153 150 146 145 142 134 121 79 358 337 333 332 331 331 332 331 329 328 327 326 326 325 324 323 321 320 319 317 313 311 308 304 294 300 303 303 304 307 304 303 305 304
157 156 153 149 149 146 136 83 352 335 335 336 334 336 340 338 332 329 326 326 325 324 324 324 323 323 322 322 320 317 314 311 308 300 297 300 299 304 303 303 308 312 310
163 161 158 155 149 137 78 344 342 341 340 341 343 344 341 336 330 327 325 326 326 325 326 326 326 324 323 321 319 318 314 310 306 304 300 300 300 303 301 305 303 307 305
170 167 164 160 152 123 341 336 331 336 346 347 342 340 337 333 330 328 326 326 325 325 327 329 329 329 327 325 322 320 317 313 307 304 300 298 297 299 302 303 303 301 299
175 172 168 164 167 296 307 315 333 345 349 344 339 335 335 330 326 325 324 323 323 325 325 326 327 329 328 325 323 321 319 315 305 305 299 297 299 302 304 303 304 302 292
176 174 171 176 226 306 319 330 343 343 341 339 335 332 330 331 330 329 327 325 322 321 322 323 324 325 325 323 322 320 321 321 327 320 315 309 303 301 300 301 302 291 233
180 179 184 202 281 305 308 321 331 332 333 331 333 334 332 333 330 328 324 322 322 321 321 319 319 322 325 324 321 321 325 326 323 319 311 303 307 315 316 318 307 217 137
183 187 196 227 263 278 297 316 324 327 330 331 333 332 332 334 332 329 326 324 321 321 319 317 317 323 324 325 324 326 318 320 326 323 326 327 335 346 8 45 51 149 133
188 195 211 231 245 263 296 314 319 323 327 330 332 333 333 332 332 330 327 323 321 318 317 316 317 323 325 325 323 319 323 324 319 327 335 349 18 33 48 63 74 145 97
194 204 217 233 250 277 302 312 317 318 322 327 329 332 335 333 331 332 328 323 319 313 310 310 314 323 324 320 314 320 320 323 326 332 339 36 47 55 60 64 68 81 102
200 211 222 235 257 281 296 305 310 314 321 327 330 333 335 333 334 331 326 322 318 311 305 307 312 320 318 312 316 321 320 313 311 321 329 45 50 55 52 51 62 69 76
210 220 223 238 262 282 296 304 311 316 322 329 332 333 334 334 333 330 327 324 319 313 311 311 307 308 306 299 309 315 306 308 296 281 295 342 5 26 21 39 42 54 46
219 221 229 242 261 278 292 304 313 320 327 331 334 334 333 332 331 329 325 321 316 311 309 303 300 300 301 283 291 294 282 276 274 275 287 303 303 314 326 331 338 348 339
220 228 241 260 275 287 297 305 310 317 326 329 331 331 330 327 326 326 325 320 313 311 307 301 293 296 292 276 275 273 260 258 266 278 285 281 280 287 294 303 311 309 309
226 237 251 268 282 292 299 302 306 313 321 325 328 331 328 324 325 326 325 322 321 319 306 300 289 294 286 272 268 269 255 256 267 273 267 268 268 271 286 292 293 293 290
234 248 263 276 285 295 302 306 310 315 318 323 328 331 328 326 327 330 327 324 324 321 316 308 293 297 283 273 267 266 261 253 256 262 263 262 258 271 276 277 276 276 275
245 256 269 280 289 298 302 305 309 312 315 319 323 327 328 326 327 332 330 323 323 320 317 309 309 298 286 274 268 264 256 251 255 256 258 258 261 264 267 266 264 259 255
255 267 275 280 289 295 298 302 306 309 313 318 324 327 328 326 330 332 331 318 314 312 309 303 301 293 288 277 271 259 249 252 247 247 251 259 261 266 269 264 261 253 240
265 273 277 283 287 293 297 301 306 310 314 319 325 329 330 327 324 321 318 312 307 307 307 300 292 289 282 275 269 255 249 244 239 245 254 257 260 264 263 254 254 245 236
267 271 275 280 285 290 295 300 306 310 316 321 325 328 330 328 325 321 315 312 310 304 300 297 286 286 282 274 264 253 241 238 239 250 256 259 258 256 255 249 249 244 240
269 271 274 279 284 289 294 299 304 310 315 320 322 326 329 330 328 324 319 316 312 305 295 290 284 281 274 263 251 232 225 238 247 252 256 255 254 255 253 247 246 243 242
264 267 271 276 282 287 293 298 303 308 313 317 321 325 328 330 329 327 326 323 317 307 297 290 283 275 263 251 236 226 230 234 249 257 252 250 254 252 247 243 243 243 243
262 266 270 275 281 286 291 298 304 307 311 315 319 323 326 326 325 328 329 330 327 318 307 298 285 269 252 239 227 226 236 234 235 240 249 255 251 248 244 242 243 244 243
261 265 271 277 283 289 294 298 300 302 304 307 312 316 319 321 323 326 328 328 329 328 321 306 287 265 247 234 238 245 242 251 256 248 252 251 247 245 244 244 243 241 241
Wind_Speed_850mb
49 47 45 42 36 32 28 24 18 11 5 5 11 17 23 28 33 36 39 42 46 50 53 60 63 67 70 71 72 71 71 68 75 125 107 109 106 97 89 82 80 75 75
49 47 44 41 36 30 23 18 11 4 6 13 20 25 29 32 38 44 49 52 57 61 65 68 71 73 74 75 76 78 80 79 74 95 116 110 101 90 86 86 83 79 77
48 44 42 37 30 22 16 10 5 7 14 20 25 28 33 38 43 47 53 57 61 64 69 73 77 79 82 80 79 82 82 83 80 78 105 100 99 93 93 87 86 85 77
46 41 37 32 24 16 8 3 6 13 19 23 27 30 34 39 45 51 58 63 67 70 73 76 79 81 83 85 84 83 81 80 80 78 85 91 88 89 80 80 89 84 82
44 38 32 25 17 10 2 8 14 18 20 23 26 31 37 43 51 58 63 68 73 78 79 81 83 84 82 81 82 79 74 76 74 79 83 80 87 85 84 89 83 82 76
42 35 27 20 11 4 6 12 14 16 19 23 30 36 41 47 54 59 68 76 79 82 86 87 89 89 87 84 81 76 68 70 75 76 83 82 93 80 82 81 77 72 58
40 33 24 16 7 2 9 11 13 16 21 28 35 42 47 54 61 67 71 75 79 82 85 88 91 91 88 86 87 81 79 68 61 68 72 74 79 75 73 76 62 46 44
38 29 20 12 4 6 9 12 15 21 28 34 41 50 56 59 63 67 70 75 79 81 83 86 88 89 85 85 86 90 83 74 59 59 59 65 67 68 59 50 37 29 9
37 28 18 8 5 6 9 13 20 26 32 41 48 51 56 58 63 67 72 76 80 82 82 83 83 83 83 72 76 79 74 71 64 55 44 44 47 43 33 19 15 9 23
37 27 16 8 7 8 11 15 23 32 39 43 46 51 54 57 60 66 70 74 80 84 84 80 77 73 69 66 61 59 69 63 48 44 38 30 26 21 14 11 8 9 20
34 23 14 10 10 11 13 20 28 35 39 44 47 50 55 60 65 69 73 76 77 81 81 76 70 68 58 55 46 48 43 42 33 29 27 17 14 16 17 18 15 16 5
30 21 15 14 14 13 17 26 34 36 40 45 52 55 61 67 72 74 75 74 71 68 69 67 64 65 56 41 36 35 31 23 21 24 15 8 12 18 21 23 24 21 19
27 22 19 17 16 19 24 30 31 35 41 47 55 62 67 72 76 77 78 76 65 58 61 60 55 56 47 39 32 35 24 20 19 15 3 6 10 14 19 17 17 15 12
25 23 22 21 22 25 29 31 33 36 42 50 58 66 72 78 82 83 82 80 74 68 68 59 53 55 45 36 33 31 22 18 12 9 8 5 6 7 8 10 10 10 6
33 28 27 27 26 28 29 34 37 40 47 54 59 66 74 82 82 81 77 76 70 69 66 58 54 54 45 35 34 27 21 18 15 12 9 7 6 7 8 7 7 6 2
33 31 29 28 28 29 32 35 38 42 46 51 57 63 68 73 80 80 77 70 64 59 56 57 54 56 48 35 35 29 25 24 20 17 13 10 13 13 10 9 8 7 6
33 33 31 30 30 33 37 41 44 43 49 52 56 60 64 73 74 70 68 65 61 47 46 51 50 54 47 39 39 33 33 30 27 23 17 16 16 14 11 11 10 9 7
35 33 32 32 33 36 41 45 50 56 60 58 56 59 63 65 64 59 56 57 50 39 36 41 45 50 45 42 43 39 34 34 30 27 21 17 15 14 16 13 12 11 9
37 35 33 33 36 39 43 47 52 55 58 62 64 60 61 63 60 47 38 39 43 41 42 40 33 38 40 43 45 45 39 36 32 25 21 19 18 19 16 15 13 11 9
37 35 35 36 37 38 44 48 51 54 57 58 60 62 65 68 66 59 43 36 41 49 50 46 37 42 47 45 47 45 39 35 29 24 22 21 22 20 18 16 13 11 10
36 36 37 38 38 41 45 47 49 52 54 56 57 57 58 59 61 58 55 52 56 61 56 47 39 36 39 49 46 43 39 32 25 25 23 23 22 20 20 17 15 15 13
37 38 39 39 40 42 43 45 47 49 50 53 56 55 54 56 57 59 60 59 54 50 49 46 38 32 34 39 38 37 31 25 26 25 25 24 22 20 20 17 18 17 16
40 41 42 42 42 43 42 42 42 44 45 46 50 53 53 54 55 57 57 55 52 47 45 39 35 33 32 34 34 30 24 24 23 25 25 23 21 21 20 18 19 18 17
45 45 42 41 40 41 40 38 37 38 40 43 45 48 49 50 51 51 50 49 46 41 37 33 31 29 29 30 31 28 26 23 21 24 24 22 22 22 22 21 21 20 19
45 42 40 39 38 37 35 34 35 36 38 41 42 44 45 45 45 43 43 41 39 34 30 26 24 24 25 27 28 24 25 27 28 28 23 24 24 24 23 22 23 21 20
41 39 37 36 34 34 34 33 33 36 37 38 39 40 43 44 42 42 40 37 34 30 26 23 20 20 23 24 20 23 27 28 30 21 20 26 26 25 25 25 25 23 23
Wind_Direction_850mb
145 147 146 143 141 139 141 136 133 120 89 4 337 331 326 324 323 323 324 325 325 326 325 323 323 321 319 318 315 311 307 302 290 300 301 305 305 305 306 301 303 303 298
148 147 146 145 145 146 142 133 118 89 353 337 332 329 329 329 328 327 328 327 327 327 326 323 322 319 317 316 313 310 307 305 298 296 303 305 305 307 305 303 305 300 299
151 153 150 146 145 142 134 121 79 358 337 333 332 331 331 332 331 329 328 327 326 326 325 324 323 321 320 319 317 313 311 308 304 294 300 303 303 304 307 304 303 305 304
157 156 153 149 149 146 136 83 352 335 335 336 334 336 340 338 332 329 326 326 325 324 324 324 323 323 322 322 320 317 314 311 308 300 297 300 299 304 303 303 308 312 310
163 161 158 155 149 137 78 344 342 341 340 341 343 344 341 336 330 327 325 326 326 325 326 326 326 324 323 321 319 318 314 310 306 304 300 300 300 303 301 305 303 307 305
170 167 164 160 152 123 341 336 331 336 346 347 342 340 337 333 330 328 326 326 325 325 327 329 329 329 327 325 322 320 317 313 307 304 300 298 297 299 302 303 303 301 299
175 172 168 164 167 296 307 315 333 345 349 344 339 335 335 330 326 325 324 323 323 325 325 326 327 329 328 325 323 321 319 315 305 305 299 297 299 302 304 303 304 302 292
176 174 171 176 226 306 319 330 343 343 341 339 335 332 330 331 330 329 327 325 322 321 322 323 324 325 325 323 322 320 321 321 327 320 315 309 303 301 300 301 302 291 233
180 179 184 202 281 305 308 321 331 332 333 331 333 334 332 333 330 328 324 322 322 321 321 319 319 322 325 324 321 321 325 326 323 319 311 303 307 315 316 318 307 217 137
183 187 196 227 263 278 297 316 324 327 330 331 333 332 332 334 332 329 326 324 321 321 319 317 317 323 324 325 324 326 318 320 326 323 326 327 335 346 8 45 51 149 133
188 195 211 231 245 263 296 314 319 323 327 330 332 333 333 332 332 330 327 323 321 318 317 316 317 323 325 325 323 319 323 324 319 327 335 349 18 33 48 63 74 145 97
194 204 217 233 250 277 302 312 317 318 322 327 329 332 335 333 331 332 328 323 319 313 310 310 314 323 324 320 314 320 320 323 326 332 339 36 47 55 60 64 68 81 102
200 211 222 235 257 281 296 305 310 314 321 327 330 333 335 333 334 331 326 322 318 311 305 307 312 320 318 312 316 321 320 313 311 321 329 45 50 55 52 51 62 69 76
210 220 223 238 262 282 296 304 311 316 322 329 332 333 334 334 333 330 327 324 319 313 311 311 307 308 306 299 309 315 306 308 296 281 295 342 5 26 21 39 42 54 46
219 221 229 242 261 278 292 304 313 320 327 331 334 334 333 332 331 329 325 321 316 311 309 303 300 300 301 283 291 294 282 276 274 275 287 303 303 314 326 331 338 348 339
220 228 241 260 275 287 297 305 310 317 326 329 331 331 330 327 326 326 325 320 313 311 307 301 293 296 292 276 275 273 260 258 266 278 285 281 280 287 294 303 311 309 309
226 237 251 268 282 292 299 302 306 313 321 325 328 331 328 324 325 326 325 322 321 319 306 300 289 294 286 272 268 269 255 256 267 273 267 268 268 271 286 292 293 293 290
234 248 263 276 285 295 302 306 310 315 318 323 328 331 328 326 327 330 327 324 324 321 316 308 293 297 283 273 267 266 261 253 256 262 263 262 258 271 276 277 276 276 275
245 256 269 280 289 298 302 305 309 312 315 319 323 327 328 326 327 332 330 323 323 320 317 309 309 298 286 274 268 264 256 251 255 256 258 258 261 264 267 266 264 259 255
255 267 275 280 289 295 298 302 306 309 313 318 324 327 328 326 330 332 331 318 314 312 309 303 301 293 288 277 271 259 249 252 247 247 251 259 261 266 269 264 261 253 240
265 273 277 283 287 293 297 301 306 310 314 319 325 329 330 327 324 321 318 312 307 307 307 300 292 289 282 275 269 255 249 244 239 245 254 257 260 264 263 254 254 245 236
267 271 275 280 285 290 295 300 306 310 316 321 325 328 330 328 325 321 315 312 310 304 300 297 286 286 282 274 264 253 241 238 239 250 256 259 258 256 255 249 249 244 240
269 271 274 279 284 289 294 299 304 310 315 320 322 326 329 330 328 324 319 316 312 305 295 290 284 281 274 263 251 232 225 238 247 252 256 255 254 255 253 247 246 243 242
264 267 271 276 282 287 293 298 303 308 313 317 321 325 328 330 329 327 326 323 317 307 297 290 283 275 263 251 236 226 230 234 249 257 252 250 254 252 247 243 243 243 243
262 266 270 275 281 286 291 298 304 307 311 315 319 323 326 326 325 328 329 330 327 318 307 298 285 269 252 239 227 226 236 234 235 240 249 255 251 248 244 242 243 244 243
261 265 271 277 283 289 294 298 300 302 304 307 312 316 319 321 323 326 328 328 329 328 321 306 287 265 247 234 238 245 242 251 256 248 252 251 247 245 244 244 243 241 241